Location: Allen Lane School
(37.8198°N, 89.7382°W)
Time: 20:31:48
(UTC+00:00)

COSMO-SKYMED 1 - Pass Details

Date: 08 December 2021
Orbit: 621 x 623 km, 97.9° (Epoch: 17 January)

Event Time Altitude Azimuth Distance (km) Brightness Sun altitude
Exits shadow 23:28:00 - 26° (NNE) 2,492 5.2 -9.5°
Reaches altitude 10° 23:29:18 10° 32° (NNE) 1,998 4.7 -9.7°
Maximum altitude 23:33:15 33° 97° (E) 1,040 3.3 -10.4°
Drops below altitude 10° 23:37:10 10° 163° (SSE) 1,983 5.2 -11.1°
Sets 23:39:31 0° 172° (S) 2,884 6.2 -11.6°
